This demonstration page uses our WeatherBlox Daily Observations layout. Learn more.

Left ArrowRight Arrow

Hourly Observations for March 30, 2019

Temp ( °F °C ) Dew Point ( °F °C ) Humidity (%) Winds ( mph kmh ) Pressure ( in mb ) Visibility ( mi km ) Precip ( " mm )
6:30 am 06:30 Cloudy 55 13 46 8 72 72 S 10 17 29.78 1009 10 16 N/A
6:45 am 06:45 Cloudy 55 13 48 9 77 77 S 13 20 29.77 1008 10 16 N/A
7:45 am 07:45 Cloudy with Light Rain 54 12 48 9 82 82 SSW 12 19 29.78 1009 5 8 N/A
8:30 am 08:30 Cloudy with Light Rain 54 12 48 9 82 82 S 12 19 29.77 1008 10 16 N/A
8:45 am 08:45 Cloudy with Light Rain 54 12 48 9 82 82 S 14 22 29.77 1008 7 11 N/A
9:45 am 09:45 Cloudy with Light Rain 54 12 50 10 88 88 SSW 10 17 29.77 1008 7 11 N/A
10:45 am 10:45 Cloudy with Light Rain 55 13 50 10 82 82 SSW 13 20 29.77 1008 10 16 N/A
11:45 am 11:45 Cloudy with Light Rain 55 13 50 10 82 82 SSW 13 20 29.77 1008 3 5 N/A
12:15 pm 12:15 Cloudy with Light Rain 55 13 50 10 82 82 SSW 13 20 29.77 1008 7 11 N/A
12:45 pm 12:45 Cloudy with Light Rain 55 13 52 11 88 88 SSW 13 20 29.76 1008 4 6 N/A
1:45 pm 13:45 Cloudy with Light Rain 55 13 52 11 88 88 SSW 9 15 29.74 1007 7 11 N/A
2:19 pm 14:19 Cloudy with Light Rain 52 11 48 9 88 88 WNW 14 22 29.76 1008 5 8 N/A
2:48 pm 14:48 Cloudy with Light Rain 48 9 46 8 94 94 N 13 20 29.76 1008 4 6 N/A
3:52 pm 15:52 Cloudy with Light Rain 48 9 45 7 87 87 N 14 22 29.75 1007 7 11 N/A
4:52 pm 16:52 Cloudy with Light Rain 46 8 41 5 82 82 N 16 26 29.74 1007 5 8 N/A
5:54 pm 17:54 Cloudy with Light Rain 45 7 41 5 87 87 N 14 22 29.73 1007 3 5 N/A
6:21 pm 18:21 Cloudy with Light Rain 41 5 37 3 87 87 N 21 33 29.76 1008 3 4 N/A
6:47 pm 18:47 Cloudy with Light Rain 41 5 37 3 87 87 NNW 29 46 29.77 1008 3 5 N/A
7:49 pm 19:49 Cloudy with Light Rain 37 3 32 0 81 81 NNW 24 39 29.91 1013 5 8 N/A
7:58 pm 19:58 Cloudy with Light Rain 36 2 30 -1 81 81 N 25 41 29.91 1013 3 4 N/A
8:56 pm 20:56 Cloudy with Light Rain 32 0 30 -1 93 93 NNW 18 30 29.93 1013 4 6 N/A
9:51 pm 21:51 Cloudy 34 1 30 -1 87 87 NNW 16 26 29.97 1015 7 11 N/A

Powered by AerisWeather